Location: Camerons Lookout
(40.9833°S, 175.9333°E)
Time: 02:01:24
(UTC+00:00)

Terra - Pass Details

Date: 14 January 2026
Orbit: 689 x 691 km, 98.0° (Epoch: 6 February)

Event Time Altitude Azimuth Distance (km) Brightness Sun altitude
Rises 10:45:23 0° 182° (S) 3,103 6.3 -23.6°
Reaches altitude 10° 10:48:05 10° 197° (SSW) 2,177 5.4 -23.8°
Maximum altitude 10:51:39 22° 246° (WSW) 1,526 4.0 -24.1°
Drops below altitude 10° 10:55:13 10° 295° (WNW) 2,155 4.3 -24.3°
Enters shadow 10:56:02 - 301° (WNW) 2,415 4.5 -24.4°
